Volver al catálogo

EGYPTSAT A

ActivoCienciaSSO
NORAD 44047·PAYLOAD·🇪🇬 Egypt

Lanzado Feb 21, 2019 desde Baikonur Cosmodrome

Loading…

Próximos Pases (próximas 24 horas)

TLE

ActualizadoSource: Space-Track

Época: Sep 14, 2026, 22:04 UTC

1 44047U 19008A   26257.91957137  .00000156  00000-0  32486-4 0  9990
2 44047  98.0112 321.4403 0001054  79.2802 280.8524 14.72290887406442

Sigue EGYPTSAT A en tiempo real con AllMySat

Download on the App Store